Theta_e
303 304 306 306 305 304 303 303 303 302 301 300 300 299 300 302 298 295 299 303 304 306 308 309 310 310 310 312 314 316 318 318 318 321 327 329 328 328 328 330 330 330 331 332 334 336 340 343 343 343 342 341 341 341 341 342 341 338 337 335 334 335 336 335 334 335 336 335 335 335 335 334 333 332 332 331 329 329 331 328 329 327 328 328 327 326 326
303 304 307 304 304 303 304 304 303 303 302 301 301 302 305 303 301 301 304 304 305 308 309 310 311 312 313 312 316 316 316 317 319 321 326 328 328 328 328 330 332 331 331 334 336 336 338 341 343 342 341 340 340 339 338 338 338 338 337 336 335 335 335 336 336 336 335 336 335 335 334 334 333 333 332 331 329 328 329 328 328 330 328 328 328 328 327
302 305 306 304 302 304 303 303 303 304 303 303 302 302 307 308 306 305 306 305 305 309 312 312 313 314 314 314 315 315 316 318 321 323 325 327 328 329 329 331 334 334 333 334 337 338 338 340 342 342 340 340 338 337 335 336 337 338 336 335 335 335 335 336 336 335 335 335 334 333 334 334 333 333 331 330 329 328 327 327 328 328 330 328 329 330 329
299 303 303 303 301 301 302 303 305 304 303 305 304 305 307 304 304 306 306 304 304 310 312 316 314 313 313 313 313 314 315 318 321 321 323 327 328 329 330 330 333 335 336 335 337 339 340 340 341 341 339 336 334 333 335 336 336 335 336 336 336 336 336 336 336 335 335 335 334 334 333 333 333 331 330 328 327 327 327 327 328 328 329 329 329 329 329
297 302 302 302 302 300 298 300 302 303 305 305 307 309 313 310 307 305 303 304 309 311 316 314 312 312 311 313 315 316 317 318 319 320 322 324 326 327 329 331 333 335 337 338 339 341 341 342 341 341 337 335 334 334 334 335 336 336 336 337 336 337 337 336 336 335 334 335 335 334 334 333 333 331 329 328 328 327 327 328 328 328 329 329 329 329 329
297 303 303 304 297 292 295 305 309 310 305 305 305 306 310 311 312 308 309 308 312 314 315 314 313 312 314 316 317 319 319 318 318 319 320 322 324 326 329 331 333 335 337 339 341 343 343 343 343 340 337 335 336 336 335 335 335 335 335 337 337 337 336 336 337 336 334 334 333 334 334 333 332 330 329 328 328 328 329 328 328 329 329 329 330 329 329
297 302 301 295 291 293 306 315 313 311 310 310 309 310 312 311 311 311 311 313 314 315 314 312 312 314 316 316 316 316 317 317 317 317 318 319 323 325 329 332 335 336 338 338 339 340 341 340 338 336 334 335 334 335 334 333 333 334 335 337 337 335 334 334 335 334 334 334 332 332 332 332 330 329 329 328 328 329 330 329 329 330 331 329 328 329 328
299 296 294 289 291 304 312 312 311 317 312 310 309 307 310 313 311 312 310 311 313 313 312 313 314 314 318 318 320 317 317 318 318 319 320 321 322 322 325 328 335 337 339 339 339 339 342 338 336 335 334 334 333 333 334 333 333 334 335 336 335 333 332 331 334 333 331 330 331 331 330 330 329 329 328 328 328 329 330 329 329 330 329 328 326 326 327
294 295 293 293 300 303 303 306 307 306 305 306 304 300 306 313 312 312 310 311 311 312 313 314 316 316 314 312 315 317 320 322 322 322 321 323 324 324 325 325 326 337 341 342 340 340 338 337 334 333 332 333 332 331 331 331 333 333 333 333 333 333 333 333 335 334 331 329 330 331 330 330 329 330 329 329 329 330 329 329 330 330 328 326 326 326 327
298 294 291 293 290 291 297 304 311 311 312 310 309 305 303 311 313 316 312 311 313 313 314 314 313 314 311 307 310 314 319 322 322 322 323 322 324 324 326 334 339 340 340 342 342 339 336 334 333 332 331 331 330 329 330 332 332 331 332 331 332 333 334 334 335 333 333 332 332 332 331 330 330 330 330 330 331 334 331 330 330 330 327 325 326 327 327
298 293 288 291 291 295 302 309 311 310 312 312 310 304 298 309 312 316 316 313 311 311 311 311 311 309 304 306 310 315 318 321 323 326 328 333 335 335 341 346 346 344 341 342 340 336 334 332 331 331 330 330 329 329 329 330 331 330 330 330 332 333 334 334 334 333 334 334 333 332 331 331 331 331 331 331 332 333 332 330 328 326 328 325 325 326 327
298 295 292 292 296 299 308 311 312 313 313 311 305 294 294 308 314 315 315 313 313 313 313 310 309 308 306 306 311 317 322 327 331 333 336 337 338 339 341 344 346 345 342 340 335 333 333 332 331 329 329 329 328 327 328 329 329 329 329 330 331 334 335 335 335 335 335 335 334 333 332 332 331 330 331 331 330 330 327 327 327 325 327 326 325 325 325
299 299 295 297 300 313 315 314 315 317 314 307 295 289 301 310 315 317 316 316 315 314 314 314 312 314 311 314 317 321 327 331 332 334 336 336 337 339 344 347 349 342 340 338 336 334 332 331 329 329 328 327 326 326 327 327 327 328 329 330 330 333 336 336 336 336 336 335 334 334 333 332 333 333 332 330 328 329 328 327 324 323 323 324 325 323 323
297 297 295 295 301 312 316 317 318 318 310 296 300 308 312 316 318 319 319 318 319 318 317 315 314 317 321 323 323 326 327 325 328 331 332 334 339 345 346 347 346 344 341 338 336 332 331 330 329 328 327 326 324 325 326 326 327 329 329 329 330 331 333 335 336 337 337 336 336 335 333 332 331 330 330 330 329 327 326 324 323 322 322 323 322 321 321
302 300 296 293 289 304 318 317 315 317 305 305 313 317 319 321 319 319 319 320 320 320 319 320 320 321 322 323 323 325 326 325 325 327 327 327 333 339 341 341 343 343 338 337 334 331 331 331 329 328 328 327 326 327 326 328 328 328 329 329 329 331 335 336 337 337 337 337 335 334 332 332 329 327 327 326 325 325 324 323 322 320 320 321 320 320 320
297 296 292 293 303 311 317 316 309 314 318 318 323 318 316 320 320 319 319 320 322 322 320 319 320 321 321 323 324 326 327 329 332 333 333 334 336 335 336 336 336 339 336 335 333 332 331 330 329 328 327 327 327 326 326 330 328 329 329 329 330 332 335 336 337 336 335 336 333 332 331 329 329 327 325 323 323 323 322 322 320 320 317 318 318 318 318
302 301 305 311 314 315 316 316 314 315 319 321 321 319 318 318 319 321 320 321 323 325 323 323 324 323 324 326 329 330 333 333 332 333 332 331 331 331 332 334 334 335 335 333 332 330 329 329 329 328 327 327 327 325 327 330 329 329 330 330 331 333 335 335 334 332 333 332 332 331 330 329 327 325 323 323 320 320 321 319 319 319 316 318 317 317 317
315 316 315 320 316 315 315 316 317 316 317 318 318 317 315 317 319 320 321 323 323 324 326 324 325 326 327 328 330 332 333 332 331 330 329 329 329 330 331 331 333 333 333 332 330 329 328 329 329 329 328 329 329 329 331 332 331 331 331 331 332 334 335 333 331 331 330 330 329 329 329 328 327 326 324 323 321 320 320 320 319 318 315 316 317 318 318
299 299 312 314 314 315 316 316 318 319 319 317 317 315 315 315 317 317 319 320 321 322 326 327 327 328 330 328 329 330 330 330 328 328 327 327 327 327 328 331 334 331 331 330 329 330 328 330 330 331 331 332 333 334 335 335 335 335 335 336 337 336 333 331 329 329 329 327 326 326 326 324 324 324 323 323 322 321 321 320 319 318 319 320 319 317 318
301 305 312 316 318 319 318 316 316 316 318 319 318 316 316 316 318 318 318 320 319 320 320 327 328 328 329 328 328 329 328 327 328 326 325 325 326 326 327 330 331 329 329 328 329 329 328 329 331 333 334 334 335 335 336 340 340 339 338 337 335 332 330 329 328 328 327 334 327 324 324 323 321 322 321 322 322 321 321 320 319 319 319 319 317 318 317
313 315 317 318 314 313 314 316 316 316 317 317 316 317 317 316 317 318 320 318 317 317 317 322 328 326 328 328 328 329 326 326 327 327 326 325 325 325 327 327 330 328 328 329 328 328 328 329 330 330 334 339 341 340 338 336 334 331 330 332 329 331 331 329 329 330 329 331 324 322 313 309 306 305 306 312 314 308 307 306 310 315 317 314 315 313 315
303 305 309 316 307 306 311 315 316 317 317 315 314 313 313 314 314 314 317 318 318 315 315 318 325 327 328 328 326 328 326 326 326 327 327 326 325 326 326 328 328 329 329 329 328 326 325 326 327 329 330 332 334 335 335 335 336 335 336 336 336 333 331 330 330 329 329 327 323 317 313 310 308 307 304 297 301 309 308 307 302 298 305 311 312 309 306
304 310 314 316 313 313 315 316 320 322 319 314 312 312 312 313 317 316 314 314 313 313 314 315 317 321 326 328 326 327 328 326 326 327 327 326 326 327 330 328 327 327 328 329 327 324 324 326 327 328 329 331 332 335 335 336 337 337 337 336 336 334 333 332 330 329 328 325 319 315 313 311 311 309 307 305 295 295 300 301 297 294 294 299 304 307 310
309 315 316 315 312 308 312 315 315 315 317 314 314 315 315 314 317 318 317 316 313 311 312 312 313 313 316 322 327 326 327 327 327 328 329 327 327 329 331 329 329 328 327 327 325 324 323 324 325 326 328 330 331 332 332 333 336 335 334 332 328 327 328 330 331 329 326 325 319 314 313 312 311 311 309 307 306 298 295 296 295 292 292 293 295 297 300
307 312 315 314 312 311 311 311 311 312 317 316 313 314 317 317 319 320 313 312 312 311 310 311 313 314 316 318 326 327 328 330 331 331 331 331 330 331 332 330 329 327 327 328 327 325 323 323 322 324 326 327 328 330 331 333 334 333 331 330 325 323 325 330 330 332 327 325 321 317 314 313 311 310 309 309 307 306 305 297 295 292 291 292 292 293 294
310 309 310 310 310 310 312 308 309 310 313 314 313 313 315 323 321 315 312 312 312 312 311 311 311 312 315 314 319 325 327 329 332 334 331 330 332 333 332 330 329 328 327 326 325 325 324 323 322 323 325 327 327 329 330 330 330 330 328 327 326 325 326 328 328 327 325 325 323 320 318 315 313 311 311 310 308 307 306 306 306 301 294 292 292 293 291
309 310 308 306 306 307 309 307 307 312 313 314 314 313 313 312 317 314 313 313 313 312 311 311 311 313 315 314 323 330 329 330 331 331 329 328 330 334 334 332 330 329 328 326 324 325 327 327 326 323 323 325 327 328 329 328 327 327 327 327 328 337 337 334 327 326 324 324 324 322 321 318 317 316 314 313 312 310 309 308 306 305 304 306 298 291 299
310 309 308 304 304 307 310 312 311 312 314 314 313 312 313 313 312 312 311 311 311 311 311 312 314 314 315 316 320 326 327 327 328 327 325 326 327 329 329 329 331 331 330 328 326 329 330 326 323 322 322 324 326 326 326 325 324 324 324 325 328 329 330 330 325 323 323 322 322 322 322 321 320 320 320 318 315 313 311 311 310 307 306 304 305 305 294
310 310 311 311 310 311 311 311 311 311 311 312 313 312 313 312 311 311 310 310 310 311 311 313 315 316 315 317 320 324 325 324 324 326 328 327 326 326 328 328 329 331 329 328 327 325 323 323 323 322 322 324 327 327 326 325 324 324 325 325 326 325 324 323 323 323 322 321 320 321 322 322 323 323 322 319 318 314 312 312 312 310 307 308 309 308 305
309 309 309 309 310 310 308 307 307 308 308 309 310 310 311 310 309 309 310 310 311 311 311 312 312 313 315 314 314 316 319 323 326 327 327 327 326 324 326 326 326 325 324 322 322 323 324 322 322 323 324 325 326 326 326 325 326 326 326 326 326 325 324 324 324 323 322 321 321 324 322 320 319 322 322 319 318 316 314 314 313 312 309 309 310 308 308
308 309 309 309 309 308 307 307 307 307 308 307 307 308 308 308 307 308 309 309 310 311 311 311 311 311 312 312 313 313 316 320 323 325 325 324 324 324 325 325 324 322 321 321 323 325 324 323 323 323 324 325 327 327 327 326 325 326 325 325 324 323 324 324 324 322 321 322 320 320 318 317 317 319 319 317 317 316 315 316 315 312 311 309 307 307 308
306 307 308 307 307 307 307 307 307 307 307 308 307 307 306 306 306 308 309 309 309 311 310 310 310 311 311 311 313 313 313 314 316 321 323 322 321 321 322 324 325 326 322 322 324 326 325 322 321 323 323 325 326 326 327 326 325 323 322 327 323 323 323 323 323 322 323 324 320 320 320 317 315 316 317 316 314 313 312 311 309 310 308 307 306 306 305
304 303 303 304 306 305 305 305 306 306 307 307 307 308 308 308 309 310 309 310 311 311 310 310 311 311 312 312 311 311 311 312 317 321 320 318 319 320 321 322 321 321 322 322 322 322 322 322 322 324 325 326 326 327 327 327 325 323 321 321 320 321 325 321 321 321 325 322 319 317 316 316 316 316 315 314 313 313 310 309 309 308 308 306 303 301 302
305 303 304 306 305 304 304 304 306 306 307 308 308 308 309 310 310 309 310 313 313 312 311 311 311 312 312 311 311 311 311 311 313 318 318 318 319 320 320 322 322 322 321 321 322 321 322 323 323 323 325 326 326 327 327 326 324 323 321 319 319 318 318 317 319 321 319 319 318 321 318 318 315 314 315 315 313 311 311 311 311 309 305 303 301 302 300
307 307 308 308 309 309 311 308 306 306 308 306 307 308 309 309 309 309 316 313 310 311 312 313 312 313 313 312 312 312 313 313 314 318 319 318 318 318 319 320 321 321 321 321 321 321 323 324 324 323 324 323 324 325 325 324 323 321 319 319 320 317 318 319 318 318 318 317 316 314 313 312 312 318 317 314 312 312 313 313 312 309 305 303 302 302 300
309 308 308 308 309 310 309 308 308 309 308 307 308 309 309 309 310 310 311 311 312 313 313 315 316 316 315 314 314 314 315 317 319 319 319 318 318 318 317 317 317 317 318 318 319 322 324 325 332 329 323 323 324 323 323 323 322 321 320 319 319 319 320 320 319 318 317 316 314 314 313 315 315 315 317 313 313 312 312 312 312 309 305 303 303 302 301
310 309 308 308 308 308 308 308 309 309 308 308 308 308 309 309 312 311 313 312 313 313 314 316 316 314 314 315 315 316 317 319 321 321 319 317 318 317 316 315 315 316 317 316 319 323 323 327 331 331 326 324 324 324 328 331 321 321 321 319 318 318 317 316 316 315 314 315 315 314 316 316 313 312 316 310 310 310 311 312 313 308 304 305 304 303 303
310 310 309 309 309 308 308 309 311 311 310 309 310 311 312 312 311 311 311 312 313 313 316 316 315 314 315 316 315 315 315 318 319 319 319 318 317 315 315 314 314 316 316 317 320 320 322 328 330 325 320 321 321 322 327 330 329 318 317 317 318 318 318 315 315 314 314 313 317 314 315 312 310 308 309 309 309 310 310 309 309 307 305 305 303 303 304
309 310 310 310 311 310 309 310 310 310 313 310 310 311 313 314 313 312 312 313 314 317 317 316 316 315 314 314 313 313 315 317 319 318 318 317 318 317 316 315 316 317 317 318 320 321 326 326 323 320 319 319 321 322 326 327 325 317 317 318 317 317 317 316 315 314 314 314 312 311 311 310 309 309 308 307 307 309 312 309 308 308 306 305 303 302 302
309 310 310 311 310 310 310 310 311 312 313 313 311 311 313 313 312 313 313 314 315 318 317 315 314 314 314 314 312 310 314 317 317 317 317 317 316 314 314 314 318 320 323 325 321 323 327 328 320 317 317 317 317 318 322 324 324 317 316 314 316 316 315 316 314 314 313 312 313 317 311 312 310 310 310 308 307 307 307 309 308 307 306 305 303 303 304
310 310 311 310 311 311 311 311 311 311 312 312 312 312 313 314 314 313 314 315 316 316 315 314 313 314 315 313 312 313 314 315 316 315 316 315 313 312 311 310 315 319 320 320 321 323 323 320 318 316 315 316 315 322 318 323 315 310 311 313 314 314 314 314 314 314 312 313 315 312 310 310 309 310 309 307 305 305 306 306 306 306 305 305 304 304 304
311 311 311 311 311 311 311 311 312 311 311 311 313 314 314 315 314 313 314 315 315 315 315 313 319 317 314 313 314 314 313 314 315 314 315 313 312 311 311 312 318 319 324 323 323 321 318 319 318 319 313 314 317 319 318 313 305 305 305 308 309 312 314 316 316 314 314 313 311 311 310 308 306 307 307 307 305 304 304 303 302 302 302 304 304 303 302
312 311 311 310 310 311 311 310 310 311 312 312 313 313 314 314 314 314 314 314 315 315 315 312 315 316 316 314 313 313 312 313 313 314 313 315 316 314 313 313 316 318 325 320 318 314 315 314 315 314 320 318 317 319 316 305 305 304 306 308 310 307 307 306 306 306 307 307 306 306 306 307 305 304 305 304 304 304 304 302 301 301 302 300 300 300 299
312 311 310 310 311 312 311 310 310 311 311 312 313 313 313 312 313 313 314 314 315 315 315 314 314 313 313 314 313 312 313 313 312 312 311 311 314 315 316 317 317 322 325 318 314 313 313 314 313 317 320 320 319 317 309 304 305 305 306 305 305 305 305 303 303 303 302 303 302 303 304 307 305 303 304 303 302 301 302 301 299 299 299 297 297 297 297
311 310 312 313 312 311 310 310 310 311 312 313 312 311 312 311 313 313 313 313 313 315 316 315 314 314 311 312 313 314 314 315 314 314 311 311 312 312 318 323 321 321 321 319 314 313 311 312 317 320 320 317 317 315 303 304 305 306 304 304 303 303 304 303 303 303 303 301 301 302 304 304 305 305 304 303 305 302 302 301 300 299 299 298 298 298 299
311 311 311 319 313 312 312 312 313 312 313 312 311 312 313 311 312 313 314 313 313 313 313 314 314 314 314 315 315 316 317 316 316 317 316 314 312 312 316 321 319 322 321 317 311 309 311 319 317 317 319 316 315 308 305 310 307 302 302 302 303 304 302 301 301 302 302 302 302 302 302 301 300 301 299 300 302 303 303 305 303 300 299 299 298 298 298
310 311 310 309 310 311 313 313 313 312 310 309 308 308 311 311 312 311 312 313 313 314 313 313 314 315 316 315 314 312 313 313 313 315 316 316 320 320 322 323 323 321 316 310 309 308 310 312 314 316 316 314 315 301 301 302 302 301 302 302 302 301 301 299 299 299 299 299 302 304 307 307 302 301 305 304 302 303 303 303 300 299 299 301 302 303 303
311 310 310 309 309 310 310 310 309 307 308 308 309 309 311 312 311 311 311 311 311 312 312 312 313 314 316 316 316 317 316 313 310 310 314 315 315 317 316 314 316 319 317 316 314 313 315 315 314 315 314 313 309 300 303 303 305 303 301 302 298 297 297 297 296 297 299 300 300 299 299 298 299 300 301 300 300 299 298 299 300 299 299 300 300 299 300
311 310 310 310 311 311 309 309 310 310 308 309 311 310 311 312 311 311 312 312 311 310 311 311 312 312 313 317 319 315 319 319 313 310 313 315 314 312 313 319 322 319 314 310 309 308 313 311 312 313 314 314 300 301 301 303 306 308 307 301 301 300 298 296 295 295 296 299 299 299 298 299 298 299 300 302 302 301 301 300 299 298 298 299 299 300 300
311 310 309 308 308 308 308 307 307 306 307 311 310 310 310 309 308 309 311 311 311 315 311 310 309 311 312 312 311 314 316 317 318 316 315 314 313 312 314 313 314 317 313 308 307 306 314 312 312 313 312 304 302 303 303 304 304 305 304 307 305 301 302 299 303 302 300 302 300 301 299 299 299 302 303 301 301 301 300 300 300 301 303 302 300 300 300
308 308 309 311 312 312 311 310 309 310 310 310 310 311 313 311 309 312 310 311 310 310 309 308 308 309 309 310 311 312 314 316 316 321 314 313 312 316 316 313 313 314 312 309 307 304 303 304 303 309 310 306 302 304 305 305 304 305 309 303 304 303 302 301 300 299 300 302 300 300 299 299 299 297 298 300 302 301 300 301 301 300 300 299 300 299 299
308 310 309 309 310 311 311 312 312 312 313 313 312 312 311 311 311 310 309 322 312 309 309 309 309 308 308 310 313 311 311 313 314 314 319 315 313 313 316 318 311 312 310 306 303 302 300 303 307 311 312 304 301 303 311 312 307 304 304 307 308 305 305 304 303 302 303 304 300 299 301 298 298 299 299 299 301 302 301 301 299 299 299 298 298 298 297
Wind_Speed
18 15 10 9 10 12 8 9 10 11 7 5 8 6 6 9 8 10 8 13 15 16 17 17 17 16 15 16 15 15 15 13 9 9 10 11 12 12 12 12 12 13 13 13 15 15 15 16 16 15 12 12 12 12 11 12 12 11 12 14 16 15 15 13 11 10 8 6 6 7 8 7 7 7 7 7 6 7 7 7 6 5 4 4 4 3 3
11 11 13 5 9 7 15 17 11 5 5 8 9 7 7 12 7 9 13 13 15 16 15 15 17 15 13 11 9 8 9 12 11 10 11 12 12 12 13 13 13 12 13 13 14 14 14 15 15 13 12 12 13 12 7 7 12 11 10 12 13 14 14 12 9 7 7 7 9 8 6 7 7 8 8 7 7 7 7 7 6 5 4 4 4 4 4
13 12 9 3 5 10 6 3 4 3 2 2 3 4 4 6 2 4 18 15 12 10 13 14 2 5 4 7 6 10 9 9 10 10 10 10 9 9 12 11 11 11 12 12 13 13 14 15 15 14 14 12 8 11 13 16 18 18 20 20 19 19 14 10 10 9 10 9 5 6 7 6 9 10 9 8 8 8 7 6 5 4 4 4 4 4 4
4 3 7 4 5 4 5 4 1 1 2 1 4 3 2 4 2 2 5 12 10 12 4 7 7 6 10 11 9 7 7 8 9 9 8 8 8 8 8 7 6 6 6 6 7 11 13 14 14 12 10 10 13 13 13 14 16 17 18 18 17 15 13 11 11 11 8 6 5 3 4 8 11 11 8 7 8 7 6 5 4 3 4 5 5 4 3
4 4 6 7 8 7 2 3 2 8 6 6 4 3 2 2 6 8 9 11 8 2 5 8 5 9 7 8 8 6 5 6 8 8 8 7 6 6 5 6 7 6 6 7 8 9 10 11 12 11 12 13 14 14 16 17 16 17 14 11 11 11 10 9 8 9 9 8 7 7 11 13 12 9 8 7 7 6 7 5 3 4 5 4 4 3 3
2 2 5 2 5 2 3 4 2 3 5 7 9 1 1 3 4 7 9 9 6 5 4 11 11 11 11 8 4 6 11 9 7 7 7 7 7 6 6 7 8 9 8 7 9 11 12 12 10 10 14 16 15 16 16 11 8 8 6 10 13 13 12 14 14 10 9 10 11 14 14 12 11 9 8 9 7 5 4 3 4 4 3 4 0 3 3
4 2 4 3 3 3 4 1 1 6 11 14 9 5 4 3 9 8 5 10 14 11 10 6 5 4 2 4 7 3 5 7 7 7 7 7 8 9 8 8 7 8 9 8 6 6 5 6 8 11 9 9 9 8 10 12 14 19 17 14 15 13 11 9 9 9 12 13 12 11 11 11 10 9 8 6 5 5 5 5 5 5 6 3 3 4 3
2 4 4 3 3 3 3 1 4 4 9 7 12 9 9 10 7 9 9 5 8 14 14 14 11 7 4 3 1 3 4 6 8 7 7 8 8 8 8 9 9 8 8 9 10 8 6 8 9 11 12 10 11 11 12 15 15 14 12 13 12 10 11 12 12 10 11 10 9 9 10 10 9 9 7 7 7 5 3 3 3 3 1 4 5 4 4
3 3 5 4 1 2 9 3 4 4 1 1 7 6 3 4 9 4 10 8 7 7 7 9 9 8 7 5 1 2 4 6 6 10 8 9 8 7 7 6 7 7 6 6 5 5 7 8 9 8 10 10 11 10 9 7 9 11 8 6 5 7 9 6 5 8 10 10 9 9 10 10 10 9 8 7 4 3 3 4 5 5 5 5 4 5 4
4 6 4 3 3 2 2 3 7 4 2 8 8 10 3 8 10 6 3 10 8 9 8 9 8 6 10 6 0 2 2 5 5 2 4 5 6 5 4 2 3 4 3 6 6 9 9 7 8 10 12 14 14 14 14 15 17 16 15 14 14 13 9 9 10 13 11 9 9 10 10 12 11 7 4 4 5 6 7 7 8 4 5 3 3 5 6
2 5 5 1 3 2 2 5 6 6 1 5 7 11 5 7 8 8 0 7 6 13 12 8 7 8 6 3 1 5 4 1 5 6 5 5 5 6 8 8 6 6 8 10 10 9 10 11 10 11 13 14 13 13 14 15 16 16 17 16 15 14 15 15 16 14 10 9 10 10 11 11 6 5 6 7 5 4 5 4 3 5 4 5 5 5 6
1 5 3 2 1 2 2 3 4 6 2 2 3 3 3 6 11 7 5 4 3 3 4 6 7 10 10 6 2 3 3 4 5 7 7 6 6 4 3 3 5 8 8 9 7 9 11 10 10 11 12 13 16 17 15 14 16 17 18 18 17 17 15 14 12 9 8 8 8 9 9 7 3 2 1 1 2 5 3 3 4 4 3 3 5 6 5
6 8 0 1 2 2 7 11 11 9 2 7 6 4 3 4 4 6 7 12 6 5 5 5 8 1 5 6 4 3 2 5 4 4 4 4 5 6 6 7 8 9 8 11 12 11 8 10 10 9 8 9 12 11 13 14 17 17 17 16 16 14 12 9 7 7 6 7 9 9 8 6 7 7 6 7 7 6 6 5 6 5 5 3 3 4 4
3 2 7 3 1 2 5 12 8 6 4 4 6 4 3 1 5 6 8 11 7 8 8 6 5 3 1 0 1 2 4 4 3 4 4 5 5 5 5 7 9 8 7 6 7 8 9 12 12 12 11 7 1 2 6 13 16 14 13 13 13 10 7 6 6 7 7 6 7 7 7 8 8 5 4 6 7 6 5 5 5 3 3 3 4 4 5
2 3 5 1 1 3 13 10 5 8 5 1 3 6 1 1 5 9 8 7 4 7 6 5 5 4 2 4 5 4 3 3 4 5 4 5 5 5 5 4 4 10 8 8 8 10 10 11 10 11 14 13 10 8 9 16 11 10 11 10 9 7 5 6 7 9 9 10 9 8 9 7 7 4 5 6 5 5 5 2 4 2 2 4 4 5 6
4 2 2 2 2 6 11 11 7 4 2 2 3 3 4 2 4 8 8 8 5 4 6 5 5 5 4 4 4 5 4 4 4 5 5 6 6 5 4 3 4 6 7 6 8 8 10 9 9 9 11 12 11 11 14 14 8 6 7 7 7 7 6 6 8 7 7 8 9 7 8 9 10 10 8 6 5 6 6 5 5 6 5 4 5 4 5
3 2 2 2 2 4 5 11 9 8 9 9 6 8 6 5 7 4 8 5 5 3 4 6 5 7 4 3 3 5 2 4 5 5 4 4 5 4 5 4 4 5 10 10 8 7 6 9 8 9 9 11 13 13 14 11 11 8 8 8 9 8 7 7 7 7 7 6 7 7 7 9 9 8 6 6 5 4 4 3 4 5 5 5 4 4 5
6 5 1 3 2 4 7 9 9 11 10 9 9 9 9 9 8 8 5 2 4 5 4 8 7 5 1 3 3 3 4 6 3 3 4 3 3 3 3 4 5 5 6 7 9 9 7 8 8 8 8 9 10 9 7 9 10 10 10 10 9 8 7 7 7 7 7 6 5 6 7 6 7 7 8 7 6 5 4 4 5 6 4 3 4 5 5
3 4 4 5 5 4 5 5 6 9 8 8 8 9 8 6 7 8 7 4 5 4 6 8 5 5 4 5 3 3 3 3 3 2 3 3 2 2 2 1 3 4 6 7 6 6 6 4 4 5 7 7 4 1 4 9 11 10 10 9 8 8 9 8 7 7 8 7 6 5 5 5 4 5 5 5 5 3 4 5 5 4 4 4 5 5 5
6 5 2 2 5 4 2 4 6 6 6 8 7 6 6 6 7 10 10 11 15 9 9 5 6 5 4 5 4 4 4 3 3 2 3 3 3 3 2 1 3 4 5 6 7 6 5 3 3 2 4 4 2 2 6 10 9 6 5 7 7 7 10 9 8 8 8 10 9 6 5 4 5 4 2 3 5 5 6 6 6 5 5 5 5 5 5
2 3 0 0 5 8 7 6 6 5 6 7 10 9 10 10 11 13 15 14 6 6 7 8 7 6 5 3 3 3 2 2 2 2 3 3 4 3 4 3 4 7 7 7 7 7 5 4 4 3 2 3 4 7 6 8 12 10 6 7 10 9 8 8 7 6 7 7 7 7 6 6 6 5 3 2 3 3 4 2 0 2 5 3 2 2 3
5 7 8 8 10 2 2 4 4 5 6 10 9 8 11 10 8 5 2 3 6 9 6 6 7 5 4 1 2 2 2 3 3 2 1 1 1 1 1 3 4 6 6 9 8 7 5 5 6 5 3 5 9 9 6 8 10 10 10 9 8 8 7 7 7 7 6 7 7 7 7 7 7 6 10 8 6 3 2 4 5 3 1 2 3 5 6
7 3 5 3 7 7 2 2 4 5 3 7 10 8 6 5 5 4 4 6 7 8 9 5 3 4 6 6 2 3 3 3 4 4 4 4 4 4 3 5 5 6 6 7 8 7 7 7 7 5 5 5 7 8 8 10 9 7 6 6 7 7 6 6 7 7 7 7 6 6 6 7 6 7 6 6 10 10 8 6 7 9 9 7 7 5 5
5 6 7 5 4 6 4 4 5 4 4 7 7 4 4 3 1 0 1 2 3 6 6 8 6 5 6 6 3 3 4 3 4 4 4 3 3 3 3 4 8 8 8 8 9 9 8 9 9 8 7 7 8 8 7 5 5 6 6 6 5 5 6 5 6 6 6 7 7 7 6 5 6 7 7 6 4 7 8 8 9 10 10 10 10 11 10
5 4 4 3 7 7 4 4 4 5 4 5 5 4 4 3 4 4 5 6 5 5 5 6 7 6 6 9 4 4 5 6 6 6 5 5 5 4 6 5 7 9 10 9 8 9 8 7 7 5 5 3 2 4 5 6 6 6 5 6 6 4 5 6 7 7 7 7 8 8 8 7 6 6 7 6 7 3 4 7 7 7 9 8 8 8 10
8 9 9 7 7 5 2 5 10 8 7 6 5 5 5 6 6 7 7 5 6 6 5 6 8 9 5 5 7 3 3 4 5 5 5 5 5 5 6 9 9 6 6 6 7 8 7 6 6 6 5 5 5 7 8 7 6 5 4 4 6 7 6 7 7 6 7 7 8 7 7 7 7 6 6 6 6 6 5 3 2 4 5 6 5 6 6
8 6 10 12 10 7 8 6 3 5 7 7 6 5 5 5 6 5 5 5 4 5 6 6 6 7 7 6 6 3 4 4 2 4 4 4 6 9 9 6 4 5 6 6 5 4 5 4 4 4 5 5 4 5 6 7 6 6 4 4 4 6 10 7 5 6 6 6 7 7 7 7 7 7 7 6 7 7 7 7 6 6 5 2 2 1 1
10 9 8 10 7 7 5 6 5 6 7 7 6 7 6 6 8 9 10 10 11 10 9 7 8 9 11 10 8 7 3 3 3 2 3 5 4 3 3 4 5 5 6 5 5 4 5 5 4 4 3 3 4 4 5 6 6 6 5 4 4 5 4 5 5 5 5 6 7 8 8 7 7 7 7 7 8 7 6 5 6 6 5 4 2 2 2
10 10 10 9 6 4 5 8 11 11 10 9 8 9 9 10 9 9 8 8 7 7 9 10 7 6 6 7 8 8 6 3 3 4 7 6 2 3 2 1 1 2 3 4 3 3 4 4 4 4 4 3 5 5 6 7 6 6 6 6 6 5 4 4 4 4 5 5 5 6 6 6 6 6 7 7 6 6 6 6 6 5 6 4 3 2 1
7 7 9 8 8 10 13 10 8 8 8 8 9 8 7 7 7 7 6 7 7 7 6 6 7 8 7 8 8 7 8 8 8 7 6 5 3 0 3 4 5 5 5 5 5 6 7 8 8 7 3 3 5 5 6 6 6 6 6 6 6 6 5 5 4 4 5 5 5 6 5 5 6 6 7 7 7 7 7 7 7 6 6 5 4 4 5
9 10 11 10 10 10 10 6 5 6 7 7 7 8 10 8 8 8 7 6 6 5 5 6 7 7 8 8 8 8 7 7 8 8 6 3 0 3 3 3 4 5 5 4 3 5 9 11 10 8 4 4 5 5 6 6 6 6 5 4 4 6 9 8 6 5 5 5 5 6 5 5 6 6 6 6 6 6 6 6 6 6 6 5 5 5 4
11 10 11 9 8 9 7 7 7 7 6 5 7 8 6 5 6 6 7 7 6 4 5 7 8 9 8 7 7 8 9 9 10 7 1 5 5 5 6 8 9 7 7 7 7 9 9 8 5 2 2 5 4 4 5 6 6 6 6 6 6 5 7 9 5 5 5 5 5 5 5 6 6 6 6 6 6 7 6 6 6 6 6 6 6 5 3
8 7 7 5 5 6 5 4 4 4 4 4 3 2 4 4 4 5 6 6 7 7 8 7 6 7 9 10 9 9 9 8 7 3 2 2 3 4 6 8 8 8 5 6 8 9 9 8 6 3 2 4 5 6 4 6 6 6 6 6 6 5 5 5 6 6 4 4 5 5 5 6 6 6 7 6 6 6 6 6 6 6 7 6 5 3 3
8 4 3 2 3 2 2 3 2 4 3 2 2 3 3 4 4 4 6 6 9 10 10 9 8 9 9 9 9 9 9 8 10 3 3 4 4 3 3 4 5 6 6 6 6 2 6 9 8 3 1 4 5 5 5 6 5 6 5 5 5 5 4 4 4 4 4 4 5 5 5 4 5 6 6 6 6 7 6 6 6 6 6 5 4 4 4
5 4 4 4 1 1 0 1 3 4 4 5 5 4 4 4 4 4 4 4 4 4 5 5 5 6 6 7 7 8 8 8 10 6 6 5 5 5 6 8 7 6 6 6 8 8 5 5 4 4 2 3 3 4 5 6 6 6 5 6 5 4 4 4 5 5 5 5 5 5 4 4 5 6 6 7 6 6 6 6 6 5 6 6 5 3 3
7 7 6 7 7 6 6 5 4 4 4 4 4 4 5 6 4 4 5 5 5 4 4 4 4 5 6 8 8 8 8 9 10 6 7 7 7 7 8 8 7 7 6 2 1 2 3 3 9 10 7 5 4 4 6 6 6 7 6 6 5 4 3 3 4 4 4 6 5 5 4 5 4 4 5 5 6 6 6 6 6 6 6 6 5 5 4
6 5 3 4 4 4 5 4 4 4 5 4 4 4 4 3 3 4 4 4 5 6 4 4 4 5 7 7 7 5 3 4 7 6 4 5 6 6 6 7 7 7 4 4 4 2 2 5 14 15 8 5 5 5 6 10 6 6 6 6 5 5 5 5 5 6 4 4 5 5 4 3 3 3 3 4 5 4 5 6 6 6 6 6 6 6 5
6 6 6 5 4 5 5 5 5 5 4 4 4 3 3 3 3 3 4 4 5 5 4 4 5 5 6 5 5 5 3 2 4 7 7 7 10 6 1 8 8 7 8 9 8 7 6 9 15 9 5 5 6 5 8 12 8 6 6 6 6 6 5 5 5 4 5 4 3 3 5 5 6 4 3 3 4 3 3 6 6 7 7 6 6 6 6
5 4 4 4 4 4 5 5 5 4 3 4 5 5 4 3 4 4 4 5 5 4 4 6 7 7 6 5 6 5 4 3 2 5 6 4 3 3 9 5 2 1 2 4 5 5 8 8 6 7 6 5 6 6 9 11 7 4 5 5 5 5 5 5 5 5 4 4 4 4 5 5 4 4 4 4 3 3 4 7 8 7 8 7 7 7 6
4 4 4 4 4 5 4 4 4 5 4 3 3 4 4 3 4 5 5 5 5 4 5 5 5 6 6 6 4 3 2 1 3 6 7 8 8 4 4 6 6 4 6 6 3 1 8 13 9 7 6 6 6 5 3 5 5 4 4 4 5 4 5 5 5 5 4 4 5 4 5 5 5 5 4 3 4 5 6 7 7 7 7 7 7 6 6
4 4 4 4 3 3 3 4 4 4 4 4 3 3 3 3 4 4 5 5 6 5 5 4 4 5 4 3 2 0 2 3 3 5 6 8 8 7 5 2 1 3 7 7 5 5 3 3 6 8 6 6 5 4 3 5 5 6 4 1 2 3 3 3 3 3 5 5 5 6 6 6 6 6 4 5 6 6 7 7 8 8 8 8 7 7 7
4 4 4 4 4 3 3 3 4 5 5 4 3 4 4 3 3 3 4 4 5 5 5 5 7 4 3 2 0 1 2 3 3 3 3 4 5 4 5 4 2 2 9 6 2 3 2 4 4 6 7 6 6 11 10 6 6 6 6 7 6 4 1 1 2 3 4 5 6 6 6 6 6 6 6 6 7 7 6 6 7 7 8 8 8 8 8
4 4 4 4 4 4 3 4 4 4 5 5 4 4 4 4 4 4 5 6 6 6 6 4 5 6 4 3 3 3 3 2 1 1 2 2 1 1 4 4 3 4 12 7 5 3 5 3 5 5 7 6 6 11 10 7 6 6 6 6 6 6 7 7 7 6 5 4 2 3 4 6 7 7 6 7 7 7 7 7 7 6 7 8 8 8 7
4 3 3 3 3 3 2 3 3 4 4 6 4 4 4 4 4 4 4 5 5 4 4 5 4 3 3 3 2 2 1 2 3 3 2 2 4 2 1 4 3 7 13 5 5 4 4 5 5 8 13 11 10 9 5 5 6 6 6 6 6 6 6 6 5 4 4 3 4 3 3 4 6 6 6 6 7 7 6 7 6 6 7 7 7 7 6
5 4 4 4 3 4 4 4 4 4 4 4 4 3 3 3 4 4 3 4 3 3 3 3 2 2 3 2 2 3 3 3 2 2 1 0 1 1 0 3 4 5 7 8 5 5 5 4 7 10 8 9 8 8 5 5 6 6 6 6 6 6 5 5 4 3 3 3 2 2 3 4 7 7 7 7 6 7 6 6 7 7 7 7 6 6 6
6 6 4 5 5 5 5 5 5 4 5 4 4 4 4 3 4 4 3 3 3 3 2 3 1 2 2 4 3 2 2 2 0 1 4 5 4 3 1 5 4 5 10 10 4 5 4 7 8 7 6 7 7 6 4 4 4 5 5 5 5 5 5 4 3 4 3 3 3 5 5 4 2 5 6 6 7 6 6 6 7 7 7 7 6 7 7
6 6 4 3 4 4 4 5 4 4 4 4 4 4 4 4 4 4 3 3 3 3 3 3 3 3 2 1 1 1 1 1 2 1 1 2 3 5 4 6 8 11 8 6 5 5 4 4 5 6 7 7 7 4 4 4 4 4 4 4 4 4 5 4 3 3 3 2 3 4 4 2 2 0 1 2 4 5 6 6 6 6 6 5 5 6 7
7 7 5 3 2 3 4 4 4 4 4 4 4 4 4 3 3 3 3 2 3 2 3 3 3 2 2 2 1 0 2 2 0 1 1 2 2 3 4 3 4 7 8 7 7 5 7 7 6 6 7 7 4 3 4 5 3 3 3 2 2 2 3 3 4 3 2 1 2 3 4 4 2 2 1 2 4 5 5 6 6 5 6 6 6 6 7
7 7 6 2 1 2 2 3 4 4 5 5 4 4 4 4 3 3 3 3 3 3 3 3 3 3 3 2 1 1 2 1 1 2 2 2 3 3 2 4 8 10 6 4 4 4 5 7 6 5 6 7 4 4 4 4 4 3 2 3 1 1 3 4 4 3 3 2 2 4 4 3 2 3 2 1 1 2 4 5 6 6 7 7 6 6 6
7 5 4 3 1 3 3 3 4 5 5 4 5 5 4 3 4 4 3 3 3 3 3 3 3 3 4 4 3 1 1 1 1 0 3 3 3 2 2 2 3 8 7 6 4 4 6 8 6 6 4 3 3 3 3 3 3 2 1 2 2 3 4 4 4 4 4 4 3 3 2 4 6 3 2 1 1 2 3 5 5 6 10 8 7 7 6
5 5 4 3 3 4 3 3 5 6 6 5 5 4 2 3 5 4 3 3 1 1 3 3 3 3 2 2 3 2 2 1 0 2 2 2 2 3 4 3 3 5 5 5 5 6 5 4 5 4 4 4 3 3 2 3 3 1 1 2 2 3 4 3 4 4 3 3 3 3 4 3 2 2 3 3 3 3 3 4 5 6 7 7 8 7 8
1 3 2 1 2 3 3 4 4 5 5 5 5 5 5 4 4 6 6 6 3 3 3 1 5 4 2 2 1 1 1 2 1 0 2 3 3 3 4 5 4 4 5 5 5 4 5 5 5 6 5 4 4 3 4 5 3 3 3 2 2 2 3 4 4 3 4 5 6 5 5 5 5 5 3 3 3 4 4 5 7 7 6 6 7 7 7
Wind_Direction
217 216 210 201 191 194 191 198 203 214 208 162 169 195 177 134 167 202 208 185 168 190 187 194 192 178 178 178 172 168 172 170 170 166 172 179 184 191 195 200 197 197 194 197 197 195 196 196 196 196 187 186 190 193 186 181 172 149 126 148 182 190 195 197 190 184 175 171 176 179 190 195 215 219 212 203 202 194 192 195 197 198 198 192 204 227 232
215 212 209 206 170 196 196 199 208 216 214 213 183 187 167 167 187 194 173 190 189 181 195 193 197 194 172 171 164 151 154 167 170 172 172 183 187 183 191 200 204 200 201 198 198 194 194 194 196 190 184 185 187 178 146 85 70 75 135 180 182 198 203 190 180 167 165 177 186 188 187 199 219 226 220 210 203 201 201 200 199 197 197 204 199 211 234
212 214 215 194 155 161 184 162 166 185 212 206 196 163 181 188 176 160 165 181 211 224 193 192 110 53 70 104 130 164 173 163 164 168 182 185 185 192 196 200 202 207 206 205 201 195 194 195 194 189 186 178 129 112 133 149 158 164 173 186 187 190 190 178 168 172 178 187 172 181 194 195 219 229 222 211 206 207 206 205 205 205 196 209 219 224 222
194 208 139 161 158 180 165 180 163 151 123 39 13 72 174 127 233 66 172 175 206 220 121 107 128 147 149 155 159 155 162 168 167 173 182 185 194 198 207 209 212 217 219 212 202 200 197 196 194 186 164 137 147 157 158 164 170 176 185 184 185 185 180 171 171 173 170 165 185 219 208 220 224 221 216 207 208 210 209 212 215 196 209 217 221 233 242
198 225 136 125 107 71 36 305 289 105 86 132 129 115 78 143 136 120 143 225 236 240 147 118 142 157 150 140 158 150 146 152 150 163 176 191 194 204 208 216 221 220 214 209 203 203 203 198 193 178 150 155 164 165 170 179 175 182 181 174 170 162 164 166 159 169 164 157 159 202 224 225 225 219 213 212 213 211 214 211 182 195 220 224 235 247 279
215 288 121 77 70 99 176 221 238 98 124 108 86 18 334 269 150 187 186 187 149 118 145 144 164 158 167 158 194 157 148 145 142 150 162 171 184 196 205 211 214 222 216 206 205 201 201 201 189 157 166 171 176 175 174 161 139 93 141 175 173 175 166 166 176 165 141 171 197 211 216 220 220 217 212 214 212 207 201 185 191 214 223 232 280 52 76
178 201 79 105 158 205 237 199 230 117 104 93 98 85 34 65 91 83 90 131 122 125 111 81 72 92 107 110 127 131 149 137 152 171 179 167 168 183 193 206 211 209 209 209 201 204 192 153 148 152 160 163 154 149 140 137 150 173 183 168 173 171 159 145 138 150 172 192 197 213 225 221 216 215 210 210 205 202 194 193 195 209 221 193 131 187 206
79 61 63 134 229 239 300 291 140 99 82 95 86 40 7 8 17 87 82 52 104 124 128 132 137 124 127 53 13 190 208 168 163 168 178 191 181 182 193 185 202 199 202 199 198 196 156 151 159 164 163 154 146 149 158 162 171 172 165 163 160 140 137 167 168 177 192 196 199 208 213 214 212 212 208 203 206 194 184 189 207 214 141 137 186 195 199
136 163 117 178 255 12 354 16 11 345 124 153 113 109 339 341 357 343 123 121 107 95 111 128 132 134 108 87 80 273 225 218 189 167 177 179 192 191 212 195 194 201 197 190 176 139 155 160 153 145 139 141 138 134 126 111 87 63 61 68 81 129 171 155 180 202 209 194 200 207 212 212 214 211 206 207 199 155 165 196 214 214 174 184 182 186 198
115 105 58 17 33 100 299 259 273 312 182 137 134 101 350 334 342 328 159 139 147 135 138 135 142 120 81 84 147 275 282 208 183 227 187 196 195 197 174 170 160 165 138 113 135 143 147 147 143 139 145 147 143 141 142 148 150 153 159 163 169 167 161 170 203 212 215 202 200 206 209 215 215 208 189 194 187 175 186 205 220 190 149 158 200 199 201
41 47 104 139 118 212 216 296 296 310 350 135 107 74 5 291 330 327 170 152 160 146 147 160 135 96 108 161 278 286 283 276 137 139 173 170 170 165 155 148 143 125 138 148 144 138 142 148 157 153 148 142 134 135 156 164 162 163 170 174 175 176 184 192 198 205 203 203 202 203 211 217 201 181 190 197 196 175 185 187 168 120 136 167 205 219 216
82 139 100 110 193 104 281 263 307 313 219 107 60 95 281 276 316 337 32 92 111 68 73 107 82 121 136 175 234 258 254 185 179 141 143 130 126 119 98 61 85 109 117 112 120 143 161 156 142 140 139 143 150 162 171 166 172 178 180 179 184 189 193 197 201 199 199 202 202 201 209 204 158 110 122 158 121 122 137 152 124 112 128 181 205 224 226
47 64 38 86 26 341 341 342 326 326 356 70 73 141 229 278 322 358 75 75 63 74 71 71 87 71 165 180 215 245 182 96 56 31 60 88 104 112 98 103 108 117 139 149 163 167 146 133 130 130 134 142 153 180 178 176 185 187 184 185 188 191 194 193 195 200 199 196 197 198 195 165 149 168 159 144 130 142 160 158 147 154 156 164 215 241 243
113 152 100 179 228 196 323 333 329 322 21 68 133 227 207 208 40 30 60 76 62 70 73 80 93 115 37 320 300 46 77 108 122 101 97 89 71 63 93 128 128 127 143 146 122 107 120 129 129 124 120 115 141 297 256 205 196 188 183 184 188 189 184 186 190 195 195 195 190 180 167 165 175 146 121 135 148 155 150 156 154 142 123 163 187 232 251
53 53 75 43 12 293 348 321 2 21 84 214 205 150 124 135 85 70 45 55 63 81 85 96 111 100 81 65 53 30 19 87 121 120 107 96 84 79 95 93 121 134 143 150 143 135 141 142 143 147 149 153 152 165 229 244 214 183 183 182 183 180 169 180 189 191 192 186 176 177 179 157 109 102 146 142 144 138 133 102 74 60 238 185 195 227 241
129 52 102 175 219 266 330 50 73 343 14 170 49 3 75 1 68 80 64 32 22 55 85 80 61 54 55 47 54 61 39 36 43 61 62 72 83 75 55 92 134 132 129 133 133 142 147 145 148 152 159 168 169 173 216 242 249 197 179 179 178 185 188 188 190 186 178 175 173 166 144 132 161 167 165 152 142 137 135 155 177 200 203 194 203 224 243
117 162 160 221 244 278 342 65 76 62 43 41 47 61 44 19 0 13 75 45 21 40 111 80 75 65 32 73 54 86 51 51 76 79 69 84 103 123 135 134 143 146 148 151 140 133 137 140 153 162 175 178 176 194 214 211 221 197 187 183 188 195 191 179 163 165 160 153 154 155 156 154 154 159 154 153 146 164 154 168 183 208 207 184 197 225 237
91 76 129 232 75 59 48 60 72 74 62 50 58 52 49 25 21 11 32 45 35 14 31 74 47 67 174 99 71 77 71 78 70 88 84 85 99 123 136 146 163 153 136 133 140 141 147 155 157 172 183 201 186 205 214 214 215 201 192 188 191 186 166 155 158 156 136 134 144 155 154 155 156 163 158 160 158 166 170 183 198 196 198 178 213 220 226
68 80 328 14 48 58 66 64 66 73 72 73 63 60 59 50 35 22 355 5 29 10 49 70 77 44 15 42 50 65 77 77 99 101 94 74 82 115 147 153 119 129 140 133 128 130 136 155 167 186 191 226 181 208 249 232 220 203 192 181 170 153 147 145 148 151 148 148 142 140 142 133 139 147 151 155 155 158 170 184 187 189 192 204 209 210 220
102 150 219 266 302 308 45 97 74 64 67 68 63 81 80 68 53 45 8 9 5 352 25 23 58 41 19 47 34 35 33 44 43 51 60 69 54 37 48 59 92 90 85 97 110 118 123 135 145 168 225 231 165 175 279 266 219 181 140 121 121 139 151 150 157 158 151 155 145 140 130 128 122 114 116 146 165 175 184 186 182 196 197 206 205 203 205
135 115 143 113 71 53 38 61 74 97 95 76 61 50 49 47 43 41 13 347 332 348 21 9 22 31 12 66 105 96 105 93 83 103 140 156 145 147 135 141 140 139 133 129 132 132 129 129 126 141 165 130 79 47 40 29 33 45 66 133 158 173 149 146 152 153 156 151 147 137 113 79 59 46 21 24 101 74 24 15 156 175 178 167 154 141 117
154 163 182 163 115 125 75 45 57 71 83 87 79 58 46 37 41 37 77 284 322 327 11 33 6 345 318 280 155 154 179 163 186 188 170 147 181 208 170 117 141 143 142 136 134 128 131 132 124 125 129 119 110 109 160 158 148 159 184 199 166 152 155 154 153 149 153 146 142 135 128 118 113 82 58 53 27 93 109 42 47 21 120 155 146 123 98
199 227 90 61 106 115 179 139 37 29 29 76 75 66 70 65 58 34 358 333 336 344 334 359 22 325 294 275 193 160 198 197 191 189 177 179 192 196 175 138 142 138 132 130 128 131 142 139 133 138 141 138 142 156 193 176 166 175 160 156 147 146 144 156 160 161 152 139 133 125 130 130 124 124 123 62 51 46 45 39 32 37 52 78 99 103 124
47 95 125 143 105 106 84 90 94 84 79 84 78 72 62 68 88 222 281 296 334 330 335 338 356 358 328 297 223 189 232 199 170 201 201 183 183 194 197 173 153 147 146 148 146 151 160 153 155 165 166 172 161 171 193 157 148 148 138 135 139 146 147 153 157 152 146 140 135 134 131 133 133 135 125 112 55 27 31 29 28 40 46 55 67 72 71
121 117 127 98 94 95 100 94 75 59 52 69 67 48 33 23 12 16 17 4 7 16 6 353 346 14 8 358 322 246 206 208 207 184 184 184 183 185 193 188 175 168 169 168 166 160 163 166 164 165 158 173 138 120 128 129 137 146 158 150 131 143 152 155 157 153 145 145 148 145 144 141 140 139 140 145 139 127 10 14 34 41 40 45 64 81 84
90 92 92 89 81 71 60 52 39 24 22 38 50 33 24 33 34 32 23 22 15 7 15 2 354 347 4 352 342 292 265 244 205 183 176 192 195 184 193 202 195 180 172 172 174 170 164 169 166 156 166 173 154 143 133 126 132 147 152 144 151 151 152 157 147 149 153 152 149 155 153 151 152 152 156 150 146 144 128 107 39 43 59 46 48 66 69
79 97 90 68 56 43 39 77 75 25 39 41 54 45 28 29 33 33 26 27 18 10 6 358 358 350 347 347 344 320 223 247 212 225 208 190 194 198 198 198 174 162 168 171 173 159 155 163 158 148 158 158 157 147 136 138 129 120 113 111 119 150 149 141 149 152 155 148 150 151 157 160 160 161 156 154 154 155 159 160 165 161 158 163 330 15 71
58 44 62 91 83 66 47 36 47 43 41 37 29 22 17 32 31 22 11 4 2 356 358 6 10 8 1 349 349 337 343 336 282 276 258 229 224 215 193 175 168 169 167 167 163 166 156 149 146 140 133 117 120 116 118 114 106 102 99 101 106 104 116 131 132 142 142 144 144 153 164 167 163 160 158 158 163 166 165 162 157 155 154 177 171 199 208
60 66 67 80 98 103 76 51 39 32 21 11 19 24 25 23 14 12 1 357 355 359 356 351 353 7 11 350 7 1 339 324 293 264 243 246 236 224 217 114 71 98 117 125 126 121 117 120 104 94 98 126 127 126 119 112 111 115 113 115 115 116 115 117 124 124 130 131 135 144 148 150 153 156 161 162 158 152 159 160 158 161 157 155 138 121 249
70 71 72 66 59 54 52 41 32 27 24 16 20 17 16 20 13 352 351 356 357 353 334 338 352 349 351 355 354 354 338 311 279 273 267 252 245 51 69 88 92 95 102 97 104 106 106 111 110 105 127 174 138 135 122 114 109 115 128 133 132 131 134 135 127 131 127 130 141 142 139 139 145 151 157 159 160 159 160 162 163 158 155 164 170 178 175
57 51 52 51 52 54 58 50 41 33 23 15 19 14 4 2 4 355 347 341 344 340 334 340 339 337 345 342 334 330 329 320 308 282 283 306 76 117 123 107 110 121 100 92 95 128 136 143 142 151 170 141 141 130 119 118 119 117 113 109 107 129 139 145 148 146 142 137 137 139 139 137 145 146 149 151 150 151 157 159 159 157 157 164 178 184 199
71 59 50 39 37 40 36 31 34 26 16 18 20 12 356 360 353 343 333 331 319 317 328 342 340 334 327 324 327 325 324 324 321 306 29 52 64 82 106 112 115 129 148 152 154 149 136 113 95 76 43 68 84 116 130 134 128 124 131 137 136 147 154 151 147 148 149 149 147 145 147 142 148 145 141 146 147 150 148 147 153 158 159 172 183 189 165
63 48 39 33 35 35 28 16 35 8 4 4 351 326 339 351 352 334 319 307 312 324 327 322 323 327 324 321 320 319 315 312 311 349 54 99 127 140 146 145 145 140 107 55 40 40 36 40 26 16 74 119 115 129 129 122 129 144 148 140 140 148 156 159 156 154 150 139 150 157 154 153 153 149 155 151 147 145 148 154 159 161 170 174 174 175 168
83 108 121 115 99 67 42 343 332 343 320 322 309 332 337 336 333 322 324 336 342 340 332 321 319 322 322 321 320 320 322 328 319 291 177 175 159 127 80 72 73 81 89 102 84 87 150 159 183 221 243 89 105 115 129 131 136 130 134 132 135 141 141 142 146 135 130 139 153 157 151 148 146 154 155 158 156 154 156 160 162 160 155 159 171 169 164
54 34 22 360 360 46 71 317 299 298 303 312 315 317 316 316 323 329 347 357 339 310 303 322 339 336 334 331 333 326 329 319 308 275 202 189 154 142 133 124 124 123 128 136 155 177 180 165 163 145 82 51 97 119 124 126 128 130 132 136 138 141 137 124 127 138 140 141 134 133 139 139 149 158 159 159 167 166 163 163 160 152 156 163 173 162 167
38 34 21 13 1 355 348 339 323 309 300 288 285 288 306 312 346 12 347 325 300 307 320 335 335 338 331 330 327 328 326 320 314 284 202 188 168 149 130 120 118 113 110 118 241 176 158 164 146 125 109 102 97 114 121 124 129 135 142 138 137 132 125 122 130 128 131 132 137 140 147 159 154 147 157 165 173 172 162 163 160 157 160 165 164 165 168
17 13 6 353 333 336 327 325 323 321 303 289 290 319 337 342 340 317 320 322 321 316 311 319 326 329 318 309 303 301 302 323 334 298 230 192 177 155 134 130 133 128 125 140 177 157 185 119 114 115 113 118 111 114 137 130 117 124 125 127 127 124 121 119 129 132 138 142 141 148 159 159 153 172 161 159 170 181 155 163 166 160 162 164 166 164 174
360 359 351 348 345 340 332 316 312 322 334 347 347 335 319 306 321 320 314 305 306 299 304 311 306 289 286 288 293 286 290 344 60 60 36 1 350 341 179 153 150 151 157 186 177 166 173 139 117 100 90 106 116 108 119 113 105 110 123 137 139 134 131 131 133 138 142 142 152 153 156 168 175 184 184 184 192 193 152 154 157 156 162 166 169 175 180
350 343 343 333 331 325 314 315 323 322 342 345 323 317 312 317 318 324 316 304 297 295 313 311 305 302 297 303 304 299 311 339 26 69 74 63 57 8 309 311 100 97 98 125 138 154 134 134 125 132 134 119 100 88 81 90 97 104 121 131 134 142 145 147 148 158 166 168 161 165 166 174 180 188 201 206 203 179 161 158 159 160 167 172 174 180 179
337 329 318 319 321 312 320 326 330 323 311 305 301 297 296 322 332 323 312 311 310 313 302 295 297 296 298 296 289 305 323 26 102 103 104 99 82 45 339 1 20 73 88 75 22 46 115 113 103 97 100 99 88 94 127 142 111 98 107 132 148 156 156 155 155 165 177 170 179 171 176 186 195 201 201 174 168 155 151 156 156 164 171 177 178 177 174
332 339 341 340 333 334 341 338 333 319 317 317 320 324 347 354 329 319 314 311 309 314 311 307 309 303 295 285 281 289 4 54 84 101 108 106 110 125 119 171 249 59 52 49 24 28 59 87 112 116 121 115 122 121 96 97 90 75 63 78 144 161 155 154 169 181 181 184 188 186 191 198 202 208 200 173 173 170 167 165 169 172 172 179 182 180 178
339 349 352 353 349 348 346 349 345 351 345 342 347 351 332 325 323 310 308 314 318 323 327 328 329 319 324 339 70 98 91 97 102 107 131 155 165 141 138 194 221 120 114 99 96 124 154 136 125 125 121 124 121 112 109 100 89 87 79 71 58 68 73 201 207 211 206 196 198 198 203 201 198 197 192 176 179 180 179 177 177 170 170 174 176 180 176
340 348 342 342 341 347 358 359 356 345 335 332 334 332 322 328 338 341 341 337 336 335 344 346 356 2 10 12 20 25 8 14 46 74 55 3 23 181 162 172 164 164 139 139 166 181 160 135 122 104 113 103 117 117 104 99 98 90 78 76 79 77 67 64 61 52 35 15 338 288 244 210 201 200 186 185 188 186 183 183 182 167 164 169 172 174 178
335 334 327 329 332 325 335 350 337 340 343 326 321 324 328 334 339 335 333 332 338 340 0 360 2 345 334 360 17 65 318 320 47 358 36 7 7 356 180 163 182 167 147 132 142 132 122 104 110 124 128 130 121 109 107 106 96 94 93 92 85 83 82 79 77 74 66 43 23 346 267 255 239 216 200 198 199 197 184 184 179 168 164 163 166 162 163
332 331 327 319 321 330 335 339 340 327 309 296 306 315 320 330 323 323 330 333 337 349 356 4 7 343 302 315 330 339 290 258 210 189 105 49 92 358 227 153 128 110 121 121 109 112 123 133 127 122 116 118 114 101 82 88 94 103 101 99 94 90 86 84 77 64 56 42 15 347 302 254 236 228 214 207 199 195 182 172 175 168 159 163 163 154 150
327 321 324 334 342 336 326 324 317 332 335 341 344 337 340 329 313 314 317 316 322 330 308 305 315 324 281 254 250 259 284 293 191 164 216 191 177 207 165 107 106 111 119 116 108 116 125 122 115 116 130 136 112 95 83 86 98 109 113 116 115 107 101 99 87 69 59 44 8 343 336 323 257 187 182 180 182 175 174 166 165 164 164 162 159 152 153
307 304 306 317 318 322 334 339 343 355 353 354 348 322 315 319 309 298 287 284 275 279 293 293 303 299 328 23 187 220 278 334 346 348 154 169 137 133 133 122 118 123 121 126 130 140 138 133 141 156 142 131 114 104 103 85 111 129 125 126 124 123 128 127 123 123 116 84 34 355 341 5 311 336 91 107 129 141 146 147 149 160 163 144 142 143 145
293 284 279 287 290 307 346 360 4 349 323 299 287 288 294 293 294 296 294 310 309 302 306 315 314 320 327 355 339 247 226 161 81 323 336 102 130 133 123 128 128 136 136 144 149 166 168 158 161 154 148 146 118 113 100 97 98 106 115 120 130 135 125 124 123 120 117 107 62 51 30 22 4 358 33 112 126 135 138 137 142 147 145 142 146 149 147
270 267 270 250 271 338 353 339 335 324 302 296 308 297 289 286 296 308 308 308 319 314 301 292 298 301 305 305 312 7 356 32 154 206 237 181 140 155 165 157 161 149 142 153 164 179 180 170 169 160 161 151 140 143 130 128 126 128 143 168 180 140 150 154 165 161 151 157 138 115 101 88 43 57 56 40 81 150 147 145 148 148 147 146 147 149 148
279 275 270 258 234 267 281 306 306 281 274 288 288 286 296 324 342 323 317 303 279 269 283 288 285 282 280 283 293 278 279 334 346 105 158 181 173 162 166 163 150 153 157 169 173 190 196 184 176 184 182 153 177 158 135 121 111 106 139 182 185 172 180 176 178 185 183 173 167 150 152 152 155 158 155 152 124 141 159 158 161 156 148 145 149 153 153
309 336 288 254 206 222 214 217 239 261 271 269 265 270 290 306 285 281 279 278 279 327 308 304 299 288 293 295 298 289 286 306 279 181 140 192 186 176 162 164 162 166 171 170 179 187 193 183 184 198 195 186 190 161 136 140 154 165 184 187 184 177 188 185 193 198 193 172 171 170 163 171 171 162 174 177 190 199 175 164 163 165 163 161 163 166 167
336 46 337 266 208 228 240 255 266 269 270 268 266 267 256 253 272 286 292 296 287 260 258 297 316 297 255 247 266 305 279 227 205 286 189 179 185 183 190 177 180 187 178 183 190 193 198 199 200 205 200 190 188 175 175 177 165 164 176 171 177 181 190 204 200 177 177 181 172 171 178 185 182 180 197 215 207 204 202 184 177 179 173 165 162 160 161